Date String (YYYY-MM-DD hh:mm:ss) UTC,Instrument flags,Ambient pressure (hPa),Sample flow (lpm),Bypass flow (lpm),Sample temperature (°C),Ambient temperature (°C),ASC tube jacket temperature (°C),LED temperature (°C),Box temperature (°C),Sample RH (%),Span deviation,Mass concentration (μg/m³),Mass concentration (μg/m³),Mass concentration (μg/m³)
DateTimeUTC,F1_M11,P_M11,Q1_M11,Q2_M11,T1_M11,T2_M11,T3_M11,T4_M11,T5_M11,U1_M11,ZSPAN_M11,X0_M11,X2_M11,X1_M11
2022-02-26 15:00:00,,0830.6,5.01,0.00,22.5,21.9,00.0,31.5,24.2,06.7,-000.4,0017.80,0011.72,0010.93
2022-02-26 15:01:00,,0830.6,4.99,0.00,22.4,21.8,00.0,31.5,24.1,06.7,-000.5,0017.56,0011.67,0010.89
2022-02-26 15:02:00,,0830.6,5.00,0.00,22.4,21.8,00.0,31.4,24.1,06.7,-000.7,0017.24,0011.54,0010.82
2022-02-26 15:03:00,,0830.6,5.00,0.00,22.4,21.7,00.0,31.4,24.1,06.7,-001.0,0016.92,0011.40,0010.65
2022-02-26 15:04:00,,0830.6,5.00,0.00,22.4,21.7,00.0,31.4,24.1,06.8,-001.1,0016.69,0011.25,0010.49
2022-02-26 15:05:00,,0830.7,5.00,0.00,22.4,21.7,00.0,31.4,24.1,06.8,-001.4,0016.29,0011.16,0010.39
2022-02-26 15:06:00,,0830.7,4.99,0.00,22.4,21.6,00.0,31.4,24.0,06.8,-001.5,0015.74,0011.08,0010.32
2022-02-26 15:07:00,,0830.7,5.00,0.00,22.4,21.9,00.0,31.4,24.1,06.8,-001.3,0015.65,0011.01,0010.26
2022-02-26 15:08:00,,0830.8,5.00,0.00,22.5,23.1,00.0,31.4,24.4,06.8,-001.5,0015.51,0010.87,0010.15
2022-02-26 15:09:00,,0830.7,5.01,0.00,22.7,23.8,00.0,31.5,24.6,06.7,-001.2,0015.60,0010.80,0010.08
2022-02-26 15:10:00,,0830.7,4.99,0.00,22.7,23.5,00.0,31.5,24.7,06.7,-000.7,0015.72,0010.77,0010.07
2022-02-26 15:11:00,,0830.7,5.00,0.00,22.7,23.2,00.0,31.5,24.6,06.7,-000.6,0015.78,0010.74,0010.05
2022-02-26 15:12:00,,0830.8,4.99,0.00,22.7,23.0,00.0,31.6,24.5,06.7,-000.3,0015.63,0010.66,0009.98
2022-02-26 15:13:00,,0830.7,5.01,0.00,22.7,22.7,00.0,31.6,24.5,06.7,-000.0,0015.78,0010.61,0009.91
2022-02-26 15:14:00,,0830.7,4.99,0.00,22.7,22.5,00.0,31.6,24.4,06.7,0000.0,0015.57,0010.55,0009.85
2022-02-26 15:15:00,,0830.7,5.00,0.00,22.7,22.4,00.0,31.6,24.4,06.6,0000.1,0015.47,0010.47,0009.77
2022-02-26 15:16:00,,0830.7,5.00,0.00,22.6,22.2,00.0,31.6,24.3,06.7,0000.5,0015.21,0010.43,0009.76
2022-02-26 15:17:00,,0830.7,5.00,0.00,22.6,22.1,00.0,31.6,24.3,06.6,0001.0,0015.12,0010.41,0009.75
2022-02-26 15:18:00,,0830.8,5.00,0.00,22.6,22.0,00.0,31.6,24.2,06.6,0001.1,0015.50,0010.36,0009.71
2022-02-26 15:19:00,,0830.8,5.00,0.00,22.6,22.0,00.0,31.6,24.2,06.6,0001.0,0015.58,0010.26,0009.65
2022-02-26 15:20:00,,0830.9,5.00,0.00,22.6,21.9,00.0,31.6,24.2,06.7,0000.9,0015.16,0010.14,0009.57
2022-02-26 15:21:00,,0830.9,5.00,0.00,22.5,21.9,00.0,31.6,24.2,06.7,0000.4,0014.93,0010.06,0009.46
2022-02-26 15:22:00,,0830.9,5.00,0.00,22.5,21.8,00.0,31.5,24.2,06.6,0000.0,0014.81,0009.96,0009.35
2022-02-26 15:23:00,,0831.0,5.00,0.00,22.5,21.8,00.0,31.5,24.2,06.6,-000.1,0014.66,0009.85,0009.23
2022-02-26 15:24:00,,0831.0,5.00,0.00,22.5,21.8,00.0,31.5,24.2,06.6,-000.2,0014.35,0009.77,0009.16
2022-02-26 15:25:00,,0830.9,5.00,0.00,22.5,21.8,00.0,31.5,24.1,06.6,-000.0,0014.21,0009.75,0009.14
2022-02-26 15:26:00,,0830.9,5.00,0.00,22.4,21.7,00.0,31.5,24.1,06.6,0000.0,0014.04,0009.69,0009.12
2022-02-26 15:27:00,,0830.9,5.00,0.00,22.4,21.7,00.0,31.5,24.1,06.6,-000.3,0013.83,0009.58,0009.02
2022-02-26 15:28:00,,0830.9,4.99,0.00,22.4,21.8,00.0,31.5,24.1,06.7,-000.5,0013.65,0009.47,0008.94
2022-02-26 15:29:00,,0830.9,5.01,0.00,22.5,22.8,00.0,31.5,24.4,06.6,-000.4,0013.17,0009.34,0008.83
2022-02-26 15:30:00,,0830.9,4.99,0.00,22.7,23.8,00.0,31.6,24.7,06.5,-000.5,0012.70,0009.23,0008.71
2022-02-26 15:31:00,,0831.0,5.01,0.00,22.8,23.8,00.0,31.6,24.8,06.4,-000.3,0012.88,0009.12,0008.59
2022-02-26 15:32:00,,0830.9,5.00,0.00,22.9,23.5,00.0,31.6,24.8,06.4,-000.2,0012.73,0008.99,0008.46
2022-02-26 15:33:00,,0830.9,5.00,0.00,22.9,23.2,00.0,31.7,24.8,06.4,-000.0,0012.66,0008.92,0008.38
2022-02-26 15:34:00,,0830.9,4.99,0.00,22.9,23.0,00.0,31.7,24.8,06.4,0000.0,0012.95,0008.85,0008.31
2022-02-26 15:35:00,,0831.0,5.01,0.00,22.9,22.8,00.0,31.7,24.8,06.4,0000.2,0013.03,0008.80,0008.22
2022-02-26 15:36:00,,0831.0,5.00,0.00,22.9,22.7,00.0,31.7,24.7,06.4,-000.2,0012.89,0008.70,0008.12
2022-02-26 15:37:00,,0831.0,5.00,0.00,22.9,22.5,00.0,31.7,24.7,06.5,-000.5,0012.87,0008.65,0008.05
2022-02-26 15:38:00,,0831.0,5.00,0.00,22.9,22.4,00.0,31.7,24.7,06.5,-000.6,0012.86,0008.63,0007.99
2022-02-26 15:39:00,,0831.0,5.00,0.00,22.9,22.4,00.0,31.7,24.6,06.5,-000.7,0012.89,0008.60,0007.91
2022-02-26 15:40:00,,0831.0,5.00,0.00,22.9,22.3,00.0,31.8,24.6,06.5,-000.7,0013.47,0008.59,0007.86
2022-02-26 15:41:00,,0831.0,5.01,0.00,22.9,22.2,00.0,31.8,24.6,06.6,-000.2,0013.54,0008.67,0007.87
2022-02-26 15:42:00,,0831.0,5.00,0.00,22.8,22.2,00.0,31.8,24.6,06.7,-000.3,0013.27,0008.69,0007.88
2022-02-26 15:43:00,,0831.0,5.01,0.00,22.8,22.2,00.0,31.8,24.6,06.6,0000.0,0013.24,0008.68,0007.88
2022-02-26 15:44:00,,0831.0,5.00,0.00,22.8,22.1,00.0,31.8,24.6,06.7,0000.1,0013.61,0008.64,0007.87
2022-02-26 15:45:00,,0831.0,4.98,0.00,22.8,22.1,00.0,31.8,24.6,06.7,-000.2,0013.69,0008.66,0007.86
2022-02-26 15:46:00,,0831.0,4.99,0.00,22.8,22.1,00.0,31.8,24.6,06.7,-000.5,0013.56,0008.61,0007.83
2022-02-26 15:47:00,,0831.0,5.00,0.00,22.8,22.1,00.0,31.8,24.6,06.7,-000.2,0013.59,0008.58,0007.80
2022-02-26 15:48:00,,0831.0,5.01,0.00,22.8,22.1,00.0,31.8,24.6,06.7,0000.1,0013.55,0008.53,0007.76
2022-02-26 15:49:00,,0831.0,5.00,0.00,22.8,22.1,00.0,31.8,24.6,06.7,0000.6,0013.51,0008.48,0007.72
2022-02-26 15:50:00,,0831.1,5.00,0.00,22.8,22.1,00.0,31.7,24.6,06.8,0000.7,0013.42,0008.44,0007.71
2022-02-26 15:51:00,,0831.1,5.00,0.00,22.8,22.0,00.0,31.7,24.6,06.7,0000.6,0012.85,0008.39,0007.70
2022-02-26 15:52:00,,0831.1,5.01,0.00,22.8,22.0,00.0,31.7,24.6,06.7,0000.2,0012.81,0008.35,0007.69
2022-02-26 15:53:00,,0831.0,5.00,0.00,22.8,22.0,00.0,31.7,24.6,06.7,0000.5,0013.33,0008.39,0007.71
2022-02-26 15:54:00,,0831.1,5.00,0.00,22.8,22.0,00.0,31.7,24.5,06.7,0000.8,0013.85,0008.38,0007.72
2022-02-26 15:55:00,,0831.1,5.00,0.00,22.8,22.0,00.0,31.7,24.6,06.7,0000.8,0013.35,0008.39,0007.73
2022-02-26 15:56:00,,0831.1,5.00,0.00,22.8,22.0,00.0,31.7,24.6,06.8,0001.0,0013.14,0008.41,0007.76
2022-02-26 15:57:00,,0831.1,5.00,0.00,22.8,22.0,00.0,31.7,24.6,06.8,0001.2,0013.28,0008.46,0007.78
2022-02-26 15:58:00,,0831.0,5.00,0.00,22.8,22.0,00.0,31.7,24.6,06.8,0000.8,0013.53,0008.51,0007.80
2022-02-26 15:59:00,,0831.0,5.00,0.00,22.8,22.0,00.0,31.7,24.6,06.8,0000.3,0014.03,0008.56,0007.84
